Weather History for KEVV - July, 2012

Change the Weather History Date:

Tuesday, July 31, 2012

  Actual Average Record
Temperature  
Mean Temperature 85 °F 78 °F  
Max Temperature 98 °F 88 °F 102 °F (1935)
Min Temperature 71 °F 67 °F 52 °F (1971)
Degree Days  
Heating Degree Days 0 0  
Month to date heating degree days 0 0  
Since 1 June heating degree days 9 6  
Since 1 July heating degree days 0 0  
Cooling Degree Days 20 13  
Month to date cooling degree days 612 403  
Year to date cooling degree days 1296 836  
Since 1 June cooling degree days 961 701  
Growing Degree Days 34 (Base 50)    
Moisture  
Dew Point 67 °F    
Average Humidity 62    
Maximum Humidity 90    
Minimum Humidity 33    
Precipitation  
Precipitation T in 0.11 in 3.12 in (1950)
Month to date precipitation 2.34 3.92  
Year to date precipitation 13.87 27.94  
Snow  
Snow 0.00 in 0.00 in - ()
Month to date snowfall 0.0 0.0  
Since 1 June snowfall 0.0 0.0  
Since 1 July snowfall 0.0 0.0  
Snow Depth 0.00 in    
Sea Level Pressure  
Sea Level Pressure 29.89 in    
Wind  
Wind Speed 5 mph (SW)    
Max Wind Speed 24 mph    
Max Gust Speed 36 mph    
Visibility 10 miles    
Events Thunderstorm    
T = Trace of Precipitation, MM = Missing Value Source: NWS Daily Summary

Daily Weather History Graph

Daily Weather History Graph

Search for Another Location

Airport or City:

Trip Planner

Search our weather history database for the weather conditions in past years. The results will help you decide how hot, cold, wet, or windy it might be!

Date:

Astronomy

Jul. 31, 2012 Rise Set
Actual Time 5:52 AM CDT 7:59 PM CDT
Civil Twilight 5:23 AM CDT 8:28 PM CDT
Nautical Twilight 4:47 AM CDT 9:04 PM CDT
Astronomical Twilight 4:08 AM CDT 9:43 PM CDT
Moon 6:48 PM CDT (7/31) 4:13 AM CDT (7/31)
Length of Visible Light 15h 05m
Length of Day
14h 07m
Waxing Gibbous, 97% of the Moon is Illuminated
Jul 31
Waxing Gibbous
Aug 1
Full
Aug 9
Last Quarter
Aug 17
New
Aug 24
First Quarter

Hourly Weather History & Observations

Time (CDT) Temp. Heat Index Dew Point Humidity Pressure Visibility Wind Dir Wind Speed Gust Speed Precip Events Conditions
12:54 AM 75.0 °F - 71.1 °F 87% 29.88 in 9.0 mi Calm Calm - N/A   Clear
1:54 AM 75.0 °F - 71.1 °F 87% 29.86 in 10.0 mi NE 3.5 mph - N/A   Clear
2:54 AM 75.0 °F - 69.1 °F 82% 29.86 in 10.0 mi Calm Calm - N/A   Clear
3:54 AM 73.9 °F - 68.0 °F 82% 29.87 in 10.0 mi ENE 3.5 mph - N/A   Clear
4:54 AM 73.9 °F - 68.0 °F 82% 29.88 in 10.0 mi Calm Calm - N/A   Clear
5:54 AM 72.0 °F - 68.0 °F 87% 29.89 in 9.0 mi Calm Calm - N/A   Clear
6:54 AM 75.0 °F - 69.1 °F 82% 29.92 in 10.0 mi Calm Calm - N/A   Clear
7:54 AM 79.0 °F - 68.0 °F 69% 29.94 in 10.0 mi Calm Calm - N/A   Clear
8:54 AM 82.0 °F 85.5 °F 69.1 °F 65% 29.94 in 10.0 mi SE 3.5 mph - N/A   Clear
9:54 AM 86.0 °F 89.4 °F 68.0 °F 55% 29.95 in 10.0 mi Calm Calm - N/A   Clear
10:54 AM 88.0 °F 90.3 °F 66.0 °F 48% 29.94 in 10.0 mi SSE 3.5 mph - N/A   Clear
11:54 AM 91.9 °F 94.5 °F 66.0 °F 42% 29.93 in 10.0 mi NW 3.5 mph - N/A   Partly Cloudy
12:54 PM 93.9 °F 96.1 °F 64.9 °F 38% 29.91 in 10.0 mi Variable 4.6 mph - N/A   Scattered Clouds
1:54 PM 95.0 °F 96.0 °F 63.0 °F 34% 29.88 in 10.0 mi Variable 3.5 mph - N/A   Partly Cloudy
2:54 PM 96.1 °F 98.3 °F 64.0 °F 35% 29.87 in 10.0 mi SW 6.9 mph - N/A   Clear
3:54 PM 98.1 °F 100.7 °F 64.0 °F 33% 29.85 in 10.0 mi SW 9.2 mph - N/A   Clear
4:54 PM 97.0 °F 99.9 °F 64.9 °F 35% 29.86 in 10.0 mi West 9.2 mph - N/A   Partly Cloudy
5:54 PM 96.1 °F 98.3 °F 64.0 °F 35% 29.84 in 10.0 mi WSW 5.8 mph - N/A   Clear
6:44 PM 93.2 °F 96.2 °F 66.2 °F 41% 29.86 in 10.0 mi SW 9.2 mph - N/A Thunderstorm Scattered Clouds
6:54 PM 93.0 °F 95.0 °F 64.9 °F 39% 29.87 in 10.0 mi North 24.2 mph 35.7 mph N/A Thunderstorm Mostly Cloudy
7:01 PM 82.4 °F 83.9 °F 64.4 °F 54% 29.88 in 10.0 mi NNE 8.1 mph 35.7 mph N/A Thunderstorm Unknown
7:54 PM 78.1 °F - 66.0 °F 66% 29.86 in 10.0 mi East 16.1 mph 26.5 mph 0.00 in Thunderstorm Thunderstorm
8:01 PM 77.0 °F - 66.2 °F 69% 29.88 in 10.0 mi East 8.1 mph 26.5 mph N/A Thunderstorm Thunderstorm
8:54 PM 75.9 °F - 66.0 °F 71% 29.90 in 10.0 mi Variable 4.6 mph - 0.00 in Thunderstorm Thunderstorm
9:21 PM 77.0 °F - 66.2 °F 69% 29.90 in 10.0 mi SSE 8.1 mph - N/A   Mostly Cloudy
9:54 PM 75.9 °F - 68.0 °F 76% 29.88 in 10.0 mi WSW 4.6 mph - N/A   Partly Cloudy
10:54 PM 73.9 °F - 68.0 °F 82% 29.87 in 10.0 mi West 3.5 mph - N/A   Clear
11:54 PM 73.4 °F - 68.0 °F 83% 29.88 in 10.0 mi Calm Calm - N/A   Clear